Location: Danville Conservation Area
(38.8674°N, 91.5143°W)
Time: 11:38:47
(UTC-06:00)

ISS - Pass Details

Date: 04 December 2021
Orbit: 413 x 422 km, 51.6° (Epoch: 19 January)

Event Time Altitude Azimuth Distance (km) Brightness Sun altitude
Rises 17:02:04 0° 316° (NW) 2,383 0.3 -4.0°
Reaches altitude 10° 17:04:58 10° 343° (NNW) 1,514 -1.0 -4.5°
Maximum altitude 17:06:51 14° 17° (NNE) 1,287 -1.7 -4.8°
Drops below altitude 10° 17:08:45 10° 51° (NE) 1,508 -1.6 -5.1°
Enters shadow 17:09:44 - 63° (ENE) 1,762 -1.3 -5.3°
